Flag for Saint Lucia Weather past 2 weeks in Vieux Fort, Saint Lucia

Now
79 °F

Rain showers. More clouds than sun.


Feels Like: 82 °F
Forecast: 80 / 86 °F
Wind: 21 mph from South

Location: Hewanorra International Airport

Current Time: Jul 30, 2015 at 3:19:13 PM

Latest Report: Jul 30, 2015 at 2:00 PM


Visibility: 1 mi

Pressure: 30.01 "Hg

Humidity: 89%

Dew point: 75 °F

Location of Vieux FortLocation

Historic Weather in Vieux Fort — Graph

°F

Vieux Fort temperature yesterday

Maximum temperature yesterday: 88 °F (at 3:00 PM)
Minimum temperature yesterday: 79 °F (at 10:00 PM)
Average temperature yesterday: 83 °F

Past Weeks' High & Low Weather Summary

 TemperatureHumidityPressure
High88 °F (Jul 21, 2:00 PM)100% (Jul 16, 4:00 AM)30.07 "Hg (Jul 16, 4:00 AM)
Low73 °F (Jul 16, 5:00 AM)59% (Jul 19, 12:00 PM)29.92 "Hg (Jul 15, 5:00 PM)
Average83 °F77%30.00 "Hg
* Reported Jul 15 1:00 PM — Jul 30 1:00 PM, Vieux Fort, Weather by CustomWeather, © 2015

Note: Actual official high and low records may vary slightly from our data, if they occured in-between our weather recording intervals... More about our weather records

Advertising

Vieux Fort weather history for previous 24 hours

 ConditionsComfort  
Time TempWeatherWind HumidityBarometerVisibility
1:00 PM
Thu, Jul 30
79 °FSprinkles. Partly sunny.21 mph89%30.01 "Hg2 mi
12:00 PM81 °FScattered showers. Broken clouds.17 mph89%30.01 "Hg4 mi
11:00 AM82 °FSprinkles. Broken clouds.25 mph89%30.01 "Hg3 mi
10:00 AM84 °FScattered showers. Broken clouds.18 mph74%30.01 "HgN/A
9:00 AM82 °FBroken clouds.23 mph89%30.01 "HgN/A
8:00 AM82 °FSprinkles. Scattered clouds.17 mph84%30.01 "HgN/A
7:00 AM81 °FScattered showers. Scattered clouds.17 mph89%29.98 "HgN/A
6:00 AM81 °FScattered clouds.18 mph89%29.98 "HgN/A
5:00 AM81 °FPartly cloudy.17 mph84%29.95 "HgN/A
4:00 AM77 °FPartly cloudy.16 mph100%29.95 "HgN/A
3:00 AM77 °FSprinkles. Partly cloudy.17 mph94%29.95 "HgN/A
2:00 AM79 °FPartly cloudy.16 mph94%29.95 "HgN/A
1:00 AM81 °FSprinkles. Partly cloudy.13 mph89%29.95 "HgN/A
12:00 AM81 °FPassing clouds.18 mph89%29.98 "HgN/A
11:00 PM
Wed, Jul 29
79 °FPassing clouds.20 mph89%29.98 "HgN/A
10:00 PM79 °FPassing clouds.18 mph89%29.98 "HgN/A
9:00 PM81 °FPassing clouds.18 mph89%29.98 "HgN/A
8:00 PM81 °FPassing clouds.17 mph89%29.95 "HgN/A
7:00 PM82 °FSprinkles. Passing clouds.17 mph84%29.95 "HgN/A
6:00 PM82 °FScattered clouds.15 mph84%29.92 "HgN/A
5:00 PM84 °FSprinkles. Partly sunny.21 mph74%29.92 "HgN/A
4:00 PM86 °FPartly sunny.18 mph75%29.92 "HgN/A
3:00 PM88 °FScattered clouds.21 mph66%29.92 "HgN/A
Weather by CustomWeather, © 2015

See weather overviewHow to use our weather pages